Location: Newark
(50.4348°N, 30.5552°E)
Time: 20:50:27
(UTC+00:00)

Vanguard 3 - Pass Details

Date: 20 January 2020
Orbit: 508 x 3263 km, 33.3° (Epoch: 22 February)

Event Time Altitude Azimuth Distance (km) Brightness Sun altitude
Rises 17:48:48 0° 238° (WSW) 7,183 12.7 -31.2°
Reaches altitude 10° 17:54:26 10° 232° (SW) 6,007 12.0 -32.1°
Maximum altitude 18:09:34 36° 175° (S) 3,413 10.1 -34.5°
Enters shadow 18:11:49 34° 159° (SSE) 3,314 9.9 -34.8°
